This is the latest recevied weather packets stored in our database for station/object KC3BBT-13. If no packets are shown the sender has not sent any weather packets the latest 10 day(s).
| Time | Temp. | Humidity | Pressure | Rain* | Wind** | Luminosity | Snow |
|---|---|---|---|---|---|---|---|
| 1778170011 | 13.33° C | 54% | 1012.9 hPa | 0 mm | - | - | - |
| 1778169121 | 13.33° C | 55% | 1013 hPa | 0 mm | - | - | - |
| 1778168442 | 13.33° C | 53% | 1013.2 hPa | 0 mm | - | - | - |
| 1778168321 | 13.33° C | 53% | 1013.2 hPa | 0 mm | - | - | - |
| 1778167431 | 13.33° C | 55% | 1013.2 hPa | 0 mm | - | - | - |
| 1778166606 | 13.33° C | 55% | 1013.2 hPa | 0 mm | - | - | - |
| 1778165886 | 13.33° C | 58% | 1013.4 hPa | 0 mm | - | - | - |
| 1778165011 | 12.22° C | 65% | 1013.6 hPa | 0 mm | - | - | - |
| 1778164266 | 12.22° C | 66% | 1013.8 hPa | 0 mm | - | - | - |
| 1778163391 | 12.22° C | 66% | 1013.7 hPa | 0 mm | - | - | - |
| 1778162648 | 12.22° C | 66% | 1013.9 hPa | 0 mm | - | - | - |
| 1778161781 | 12.22° C | 68% | 1013.9 hPa | 0 mm | - | - | - |
| 1778161330 | 12.22° C | 70% | 1014.1 hPa | 0 mm | - | - | - |
| 1778161049 | 12.22° C | 70% | 1014.1 hPa | 0 mm | - | - | - |
| 1778160226 | 12.22° C | 70% | 1013.8 hPa | 0 mm | - | - | - |
| 1778159708 | 11.67° C | 77% | 1013.7 hPa | 0 mm | - | - | - |
| 1778159486 | 11.67° C | 77% | 1013.7 hPa | 0 mm | - | - | - |
| 1778158782 | 11.67° C | 80% | 1013.7 hPa | 0 mm | - | - | - |
| 1778158591 | 11.67° C | 80% | 1013.7 hPa | 0 mm | - | - | - |
| 1778158151 | 11.67° C | 84% | 1013.8 hPa | 0 mm | - | - | - |
| 1778157691 | 11.67° C | 84% | 1013.8 hPa | 0 mm | - | - | - |
| 1778157036 | 11.67° C | 84% | 1013.8 hPa | 0 mm | - | - | - |
| 1778156911 | 11.67° C | 84% | 1013.8 hPa | 0 mm | - | - | - |
| 1778156046 | 11.67° C | 84% | 1013.8 hPa | 0 mm | - | - | - |
| 1778155181 | 11.11° C | 85% | 1013.7 hPa | 0 mm | - | - | - |
* Rain latest hour (hover to see other rain measurements)
** Current wind speed in m/s (hover to see current wind gust speed)